EKSB

Details ICAO EKSB (SGD)
Name Sonderborg
Region Denmark / Faroe Islands
Timezone Europe/Copenhagen (UTC+2.0)
Plans Departing 35
Arriving 39
Stats Elevation 24 ft / 7 m (AMSL)
Location 54.962829° 9.794023°
Runways 1
Magnetic Variation 2.816° E
Sunrise 2018-06-24 02:43:43 UTC / 2018-06-24 04:43:43 Local
Sunset 2018-06-24 20:05:09 UTC / 2018-06-24 22:05:09 Local
Advertisement - Login to hide

Runways

ID Width Length Bearing (true) Bearing (mag) Surface Threshold Offset Overrun Length
14 98 ft / 30 m 5,884 ft / 1,793 m 139.42° 136.60° Asphalt 0 ft / 0 m 0 ft / 0 m
32 98 ft / 30 m 5,884 ft / 1,793 m 319.43° 316.61° Asphalt 0 ft / 0 m 0 ft / 0 m

Approach Navaids

Runway Type Ident Frequency Range Bearing (true) Bearing (mag) Slope Elevation
32 Localiser CIM 111.15 MHz 18 nm / 33 km 319.41° 316.60° - 24 ft / 7 m (AMSL)
32 Glidescope CIM 111.15 MHz 10 nm / 19 km 319.42° 316.61° 3.00° 24 ft / 7 m (AMSL)
32 DME CIM 111.15 MHz 18 nm / 33 km - - - 24 ft / 7 m (AMSL)

Map

Weather


0- 5 10 15 20 25 30 35+ Temperature / ° C

Clouds and Precipitation
Forecast for 2018-06-25 00:00 UTC. Updated 40 minutes ago

Ground ~20,000 ft ~40,000 ft Winds

METAR

EKSB 242220Z AUTO 27006KT 230V300 9999NDV NCD 13/12 Q1018

TAF

Not found

Frequencies

Tower 126.40 MHz AFIS
Warning: Do not use this data for real-world aviation or navigation. No guarantee of current accuracy is given.